Location: Unnamed
(51.5169°N, 0.1311°W)
Time: 15:01:29
(UTC+01:00)

Vanguard 1 - Pass Details

Date: 09 August 2024
Orbit: 649 x 3825 km, 34.2° (Epoch: 18 September)

Event Time Altitude Azimuth Distance (km) Brightness Sun altitude
Rises 03:27:25 0° 260° (W) 5,737 13.6 -16.0°
Reaches altitude 10° 03:30:55 10° 254° (WSW) 5,106 13.2 -15.7°
Maximum altitude 03:45:29 41° 191° (S) 4,261 12.8 -14.3°
Drops below altitude 10° 04:05:42 10° 132° (SE) 6,926 14.4 -12.2°
Sets 04:11:33 0° 126° (SE) 7,891 14.8 -11.6°
